Location: ????????
(54.9045°N, 39.1041°E)
Time: 03:41:28
(UTC+00:00)

ATLAS 2AS CENTAUR R/B - Pass Details

Date: 14 April 2024
Orbit: 1016 x 1195 km, 63.7° (Epoch: 25 May)

Event Time Altitude Azimuth Distance (km) Brightness Sun altitude
Rises 01:10:09 0° 193° (SSW) 4,057 5.3 -10.2°
Reaches altitude 10° 01:13:05 10° 186° (S) 3,081 4.7 -9.8°
Maximum altitude 01:19:46 39° 121° (ESE) 1,649 4.0 -9.0°
Drops below altitude 10° 01:26:15 10° 55° (NE) 2,986 6.8 -8.2°
Sets 01:29:03 0° 48° (NE) 3,919 7.6 -7.9°
